Content
SEND FEEDBACK

Daily
Averages
Monthly
Summary
United States of America

MILAN, OHIO


Home > North America > United States > Ohio
Elevation: 204 meters     Latitude: 41 16N     Longitude: 082 37W

WEATHER
 
SELECT A DAY
Number of Records: 180,637;   Date Range: 10/8/98 - 9/18/14
 
SHARE

PRINT THIS DATA

[ ← Previous Day ]
WEATHER ALMANAC - 31 JANUARY, 2013
[ Next Day → ]
[ °F ]   °C
Weather ElementAverageHighLow
Temperature-3.9 °C2 °C (12:36 am)-7.8 °C (11:53 pm)
Dewpoint-11 °C0.6 °C (12:53 am) (7:00 pm)
Humidity75.7 %100 % (8:17 am)52 % (10:53 pm)
Barometer1005.4 hPa1012.9 hPa (9:53 pm)992.9 hPa (12:36 am)
Wind Speed34.1 km/h50.1 km/h (9:53 am)
Wind Gust76 km/h (12:36 am)
Weather ElementAverage
Visibility7.7 km
Wind DirectionWNW (275.7 °)

Weather ElementTotal
Precipitation---
Heating Degree Days21.2 (Base 18.3)
Averaged from 72 records on 31 January, 2013
WEATHER CONDITIONS BREAKOUT
WIND DIRECTION BREAKOUT
WEATHER BY HOUR - 31 JANUARY, 2013
[ °F ]   °C
Local TimeTemperatureDewpointHumidityBarometerVisibilityWind DirectionWind SpeedGust SpeedPrecipitationEventsConditions
12:36 AM2 °C0 °C87 %992.9 hPa11.3 kmWest (260°)46.3 km/h76 km/h0 mmSnowLight Snow
12:39 AM2 °C0 °C87 %993.2 hPa14.5 kmWest (280°)33.3 km/h57.5 km/h0 mmSnowLight Snow
12:53 AM1.7 °C0.6 °C92 %993.6 hPa14.5 kmWest (280°)42.6 km/h59.2 km/h0 mmSnowLight Snow
1:53 AM1.1 °C-17.8 °C995.3 hPa14.5 kmWest (270°)42.6 km/h61.2 km/h0 mmSnowLight Snow
2:06 AM1 °C-17.8 °C995.3 hPa14.5 kmWest (280°)24.1 km/h51.8 km/h0 mmOvercast
2:39 AM1 °C-17.8 °C996.3 hPa14.5 kmWest (270°)40.7 km/h55.5 km/h0 mmSnowLight Snow
2:53 AM0.6 °C-17.8 °C997 hPa14.5 kmWest (280°)40.7 km/h59.2 km/h0 mmSnowLight Snow
3:53 AM0 °C-17.8 °C997.6 hPa14.5 kmWest (280°)40.7 km/h53.8 km/h0 mmSnowLight Snow
4:49 AM-1 °C-17.8 °C998.6 hPa9.7 kmWest (270°)46.3 km/h62.9 km/h0 mmSnowLight Snow
4:53 AM-1.1 °C-17.8 °C999 hPa8 kmWest (270°)44.4 km/h68.6 km/h0 mmSnowLight Snow
5:05 AM-2 °C-17.8 °C999.3 hPa4 kmWest (280°)48.1 km/h64.9 km/h0 mmSnowLight Snow
5:10 AM-2 °C-17.8 °C999.3 hPa9.7 kmWest (280°)40.7 km/h64.9 km/h0 mmSnowLight Snow
5:53 AM-2.2 °C-17.8 °C1000.7 hPa12.9 kmWNW (290°)38.9 km/h59.2 km/h0 mmSnowLight Snow
6:36 AM-2 °C-17.8 °C1001 hPa4.8 kmWNW (290°)37 km/h55.5 km/h0 mmSnowLight Snow
6:43 AM-3 °C-17.8 °C1001.4 hPa3.2 kmWNW (290°)29.6 km/h51.8 km/h0 mmSnowLight Snow
6:53 AM-3.3 °C-17.8 °C1002 hPa4.8 kmWest (270°)37 km/h55.5 km/h0 mmSnowLight Snow
7:27 AM-4 °C-17.8 °C1002.4 hPa4 kmWest (270°)29.6 km/h53.8 km/h0 mmSnowLight Snow
7:43 AM-3 °C-17.8 °C1002.7 hPa12.9 kmWest (270°)38.9 km/h62.9 km/h0 mmSnowLight Snow
7:53 AM-3.9 °C-17.8 °C1003.7 hPa14.5 kmWest (270°)37 km/h55.5 km/h0 mmSnowLight Snow
8:05 AM-4 °C-17.8 °C1003.4 hPa1.6 kmWest (280°)46.3 km/h64.9 km/h0 mmSnowLight Snow
8:12 AM-4 °C-17.8 °C1003.7 hPa0.8 kmWest (280°)35.2 km/h64.9 km/h0 mmSnowSnow
8:17 AM-4 °C-4 °C100 %1003.7 hPa4.8 kmWest (280°)29.6 km/h50.1 km/h0 mmSnowLight Snow
8:32 AM-4 °C-4 °C100 %1004.1 hPa4 kmWest (270°)33.3 km/h55.5 km/h0 mmSnowLight Snow
8:39 AM-4 °C-17.8 °C1004.1 hPa1.6 kmWest (270°)29.6 km/h44.4 km/h0 mmSnowLight Snow
8:45 AM-4 °C-4 °C100 %1004.1 hPa4.8 kmWest (260°)29.6 km/h42.6 km/h0 mmSnowLight Snow
8:53 AM-4.4 °C-4.4 °C100 %1004.7 hPa8 kmWest (280°)29.6 km/h0 mmSnowLight Snow
9:04 AM-4 °C-4 °C100 %1004.4 hPa3.2 kmWest (280°)31.5 km/h53.8 km/h0 mmSnowLight Snow
9:16 AM-5 °C-5 °C100 %1004.7 hPa1.3 kmWest (270°)38.9 km/h59.2 km/h0 mmSnowLight Snow
9:32 AM-4 °C-4 °C100 %1004.7 hPa1.9 kmWest (270°)33.3 km/h51.8 km/h0 mmSnowLight Snow
9:37 AM-4 °C-5 °C93 %1004.7 hPa4.8 kmWest (270°)37 km/h51.8 km/h0 mmSnowLight Snow
9:53 AM-3.9 °C-5.6 °C88 %1005.8 hPa14.5 kmWest (260°)50.1 km/h61.2 km/h0 mmSnowLight Snow
10:53 AM-4.4 °C-10 °C65 %1006.8 hPa12.9 kmWest (270°)37 km/h62.9 km/h0 mmSnowLight Snow
11:02 AM-5 °C-10 °C68 %1006.4 hPa14.5 kmWest (270°)33.3 km/h57.5 km/h0 mmSnowLight Snow
11:16 AM-4 °C-11 °C59 %1006.4 hPa14.5 kmWest (270°)40.7 km/h53.8 km/h0 mmSnowLight Snow
11:28 AM-4 °C-11 °C59 %1006.8 hPa14.5 kmWest (260°)42.6 km/h59.2 km/h0 mmSnowLight Snow
11:53 AM-5 °C-10.6 °C65 %1007.8 hPa8 kmWest (270°)40.7 km/h55.5 km/h0 mmSnowLight Snow
12:46 PM-6 °C-9 °C80 %1007.5 hPa2.9 kmWest (260°)42.6 km/h55.5 km/h0 mmSnowLight Snow
12:53 PM-5.6 °C-9.4 °C75 %1008.1 hPa1.9 kmWest (260°)37 km/h55.5 km/h0 mmSnowLight Snow
12:57 PM-6 °C-10 °C74 %1007.1 hPa4.8 kmWest (260°)33.3 km/h50.1 km/h0 mmSnowLight Snow
1:03 PM-6 °C-10 °C74 %1007.1 hPa4 kmWest (270°)33.3 km/h50.1 km/h0 mmSnowLight Snow
1:07 PM-6 °C-9 °C80 %1007.1 hPa1.3 kmWest (270°)40.7 km/h53.8 km/h0 mmSnowLight Snow
1:17 PM-6 °C-9 °C80 %1007.5 hPa1.9 kmWest (270°)31.5 km/h46.3 km/h0 mmSnowLight Snow
1:20 PM-6 °C-9 °C80 %1007.5 hPa4.8 kmWest (270°)37 km/h46.3 km/h0 mmSnowLight Snow
1:26 PM-6 °C-9 °C80 %1007.5 hPa4 kmWest (270°)25.9 km/h46.3 km/h0 mmSnowLight Snow
1:38 PM-6 °C-11 °C68 %1007.5 hPa4.8 kmWest (270°)31.5 km/h46.3 km/h0 mmSnowLight Snow
1:53 PM-5 °C-11.7 °C60 %1008.5 hPa14.5 kmWest (280°)29.6 km/h46.3 km/h0 mmSnowLight Snow
2:24 PM-4 °C-10 °C64 %1007.8 hPa4 kmWest (280°)31.5 km/h53.8 km/h0 mmSnowLight Snow
2:27 PM-5 °C-9 °C74 %1007.8 hPa2.9 kmWest (280°)37 km/h53.8 km/h0 mmSnowLight Snow
2:35 PM-5 °C-9 °C74 %1007.8 hPa2.9 kmWest (270°)31.5 km/h59.2 km/h0 mmSnowLight Snow
2:48 PM-4 °C-9 °C69 %1007.8 hPa2.9 kmWest (260°)38.9 km/h48.1 km/h0 mmSnowLight Snow
2:53 PM-5 °C-8.9 °C74 %1008.8 hPa1.3 kmWest (280°)33.3 km/h57.5 km/h0 mmSnowLight Snow
3:07 PM-4 °C-9 °C69 %1007.8 hPa3.2 kmWest (280°)27.8 km/h44.4 km/h0 mmSnowLight Snow
3:11 PM-4 °C-9 °C69 %1007.8 hPa8 kmWNW (290°)31.5 km/h50.1 km/h0 mmSnowLight Snow
3:53 PM-3.3 °C-10 °C60 %1008.5 hPa14.5 kmWest (280°)33.3 km/h48.1 km/h0 mmSnowLight Snow
4:28 PM-4 °C-8 °C74 %1008.1 hPa2.9 kmWest (260°)33.3 km/h53.8 km/h0 mmSnowLight Snow
4:38 PM-4 °C-8 °C74 %1008.1 hPa4.8 kmWest (270°)29.6 km/h46.3 km/h0 mmSnowLight Snow
4:50 PM-4 °C-8 °C74 %1008.1 hPa4 kmWest (280°)29.6 km/h46.3 km/h0 mmSnowLight Snow
4:53 PM-3.9 °C-8.3 °C72 %1009.1 hPa3.2 kmWest (280°)25.9 km/h44.4 km/h0 mmSnowLight Snow
5:00 PM-4 °C-9 °C69 %1008.1 hPa4.8 kmWest (280°)31.5 km/h42.6 km/h0 mmSnowLight Snow
5:53 PM-4.4 °C-12.2 °C55 %1009.8 hPa14.5 kmWest (270°)38.9 km/h51.8 km/h0 mmMostly Cloudy
6:53 PM-4.4 °C-12.2 °C55 %1010.5 hPa14.5 kmWest (280°)33.3 km/h53.8 km/h0 mmSnowLight Snow
7:32 PM-6 °C-10 °C74 %1010.2 hPa4.8 kmWest (280°)29.6 km/h42.6 km/h0 mmSnowLight Snow
7:36 PM-6 °C-9 °C80 %1010.2 hPa2.9 kmWest (280°)29.6 km/h40.7 km/h0 mmSnowLight Snow
7:53 PM-6.1 °C-8.9 °C81 %1011.9 hPa2.9 kmWNW (290°)20.4 km/h0 mmSnowLight Snow
8:03 PM-6 °C-9 °C80 %1010.5 hPa4.8 kmWNW (290°)27.8 km/h38.9 km/h0 mmSnowLight Snow
8:16 PM-6 °C-11 °C68 %1010.8 hPa12.9 kmWNW (290°)27.8 km/h44.4 km/h0 mmSnowLight Snow
8:42 PM-7 °C-10 °C80 %1011.2 hPa4 kmWNW (290°)20.4 km/h44.4 km/h0 mmSnowLight Snow
8:49 PM-7 °C-11 °C74 %1011.2 hPa11.3 kmWNW (290°)22.2 km/h33.3 km/h0 mmSnowLight Snow
8:53 PM-6.7 °C-11.1 °C71 %1012.5 hPa14.5 kmWNW (300°)25.9 km/h0 mmOvercast
9:53 PM-6.7 °C-13.9 °C57 %1012.9 hPa16.1 kmWNW (290°)20.4 km/h38.9 km/hOvercast
10:53 PM-7.2 °C-15.6 °C52 %1012.9 hPa16.1 kmWNW (290°)24.1 km/hClear
11:53 PM-7.8 °C-15 °C57 %1012.9 hPa16.1 kmWest (280°)18.5 km/hClear
Hourly data recorded from KLPR, located 0 kilometers away from Milan, Ohio







STORIES FROM OUR PARTNERS